Location: Unspecified
(47.9110°N, 14.3980°E)
Time: 16:50:06
(UTC+00:00)

Landsat 7 - Pass Details

Date: 06 August 2020
Orbit: 701 x 703 km, 98.1° (Epoch: 25 September)

Event Time Altitude Azimuth Distance (km) Brightness Sun altitude
Exits shadow 19:42:46 14° 149° (SSE) 1,931 5.5 -11.1°
Maximum altitude 19:46:50 59° 71° (ENE) 812 4.0 -11.6°
Drops below altitude 10° 19:51:31 10° 353° (N) 2,182 7.1 -12.2°
Sets 19:53:49 0° 350° (N) 3,105 8.1 -12.5°
